Time,TemperatureF,DewpointF,PressureIn,WindDirection,WindDirectionDegrees,WindSpeedMPH,WindSpeedGustMPH,Humidity,HourlyPrecipIn,Conditions,Clouds,dailyrainin,SolarRadiationWatts/m^2,SoftwareType,DateUTC
2013-02-27 00:01:00,34.0,34.0,-100.00,South,187,0.0,0.0,99,0.00,,,0.20,0.000000,,2013-02-27 08:01:00,
2013-02-27 00:32:00,34.0,34.0,-100.00,SE,128,0.0,0.0,99,0.00,,,0.20,0.000000,,2013-02-27 08:32:00,
2013-02-27 00:42:00,34.0,34.0,-100.00,SE,128,0.0,0.0,99,0.00,,,0.20,0.000000,,2013-02-27 08:42:00,
2013-02-27 00:52:00,34.0,34.0,-100.00,SE,128,0.0,0.0,99,0.00,,,0.20,0.000000,,2013-02-27 08:52:00,
2013-02-27 01:01:00,34.0,34.0,-100.00,SE,128,0.0,0.0,99,0.00,,,0.20,0.000000,,2013-02-27 09:01:00,
2013-02-27 01:32:00,33.0,32.0,-100.00,South,185,0.0,0.0,98,0.00,,,-99.99,0.000000,,2013-02-27 09:32:00,
2013-02-27 01:42:00,33.0,32.0,-100.00,South,185,0.0,0.0,98,0.00,,,-99.99,0.000000,,2013-02-27 09:42:00,
2013-02-27 01:52:00,33.0,32.0,-100.00,South,185,0.0,0.0,98,0.00,,,-99.99,0.000000,,2013-02-27 09:52:00,
2013-02-27 02:01:00,33.0,32.0,-100.00,South,185,0.0,0.0,98,0.00,,,-99.99,0.000000,,2013-02-27 10:01:00,
2013-02-27 02:32:00,35.0,33.0,-100.00,South,172,0.0,0.0,93,0.00,,,0.20,0.000000,,2013-02-27 10:32:00,
2013-02-27 02:42:00,35.0,33.0,-100.00,South,172,0.0,0.0,93,0.00,,,0.20,0.000000,,2013-02-27 10:42:00,
2013-02-27 02:52:00,35.0,33.0,-100.00,South,172,0.0,0.0,93,0.00,,,0.20,0.000000,,2013-02-27 10:52:00,
2013-02-27 03:01:00,35.0,33.0,-100.00,South,172,0.0,0.0,93,0.00,,,0.20,0.000000,,2013-02-27 11:01:00,
2013-02-27 03:32:00,35.0,34.0,-100.00,East,79,0.0,0.0,96,0.00,,,0.20,0.000000,,2013-02-27 11:32:00,
2013-02-27 03:42:00,35.0,34.0,-100.00,East,79,0.0,0.0,96,0.00,,,0.20,0.000000,,2013-02-27 11:42:00,
2013-02-27 03:52:00,35.0,34.0,-100.00,East,79,0.0,0.0,96,0.00,,,0.20,0.000000,,2013-02-27 11:52:00,
2013-02-27 04:01:00,35.0,34.0,-100.00,East,79,0.0,0.0,96,0.00,,,0.20,0.000000,,2013-02-27 12:01:00,
2013-02-27 04:33:00,35.0,33.0,-100.00,East,98,0.0,0.0,91,0.00,,,0.20,0.000000,,2013-02-27 12:33:00,
2013-02-27 04:42:00,35.0,33.0,-100.00,East,98,0.0,0.0,91,0.00,,,0.20,0.000000,,2013-02-27 12:42:00,
2013-02-27 04:52:00,35.0,33.0,-100.00,East,98,0.0,0.0,91,0.00,,,0.20,0.000000,,2013-02-27 12:52:00,
2013-02-27 05:02:00,35.0,33.0,-100.00,East,98,0.0,0.0,91,0.00,,,0.20,0.000000,,2013-02-27 13:02:00,
2013-02-27 05:32:00,34.0,31.0,-100.00,SSW,198,0.0,0.0,90,0.00,,,0.20,0.000000,,2013-02-27 13:32:00,
2013-02-27 05:42:00,34.0,31.0,-100.00,SSW,198,0.0,0.0,90,0.00,,,0.20,0.000000,,2013-02-27 13:42:00,
2013-02-27 05:52:00,34.0,31.0,-100.00,SSW,198,0.0,0.0,90,0.00,,,0.20,0.000000,,2013-02-27 13:52:00,
2013-02-27 06:02:00,34.0,31.0,-100.00,SSW,198,0.0,0.0,90,0.00,,,0.20,0.000000,,2013-02-27 14:02:00,
2013-02-27 06:32:00,36.0,34.0,-100.00,ESE,121,0.0,0.0,92,0.00,,,0.20,0.000000,,2013-02-27 14:32:00,
2013-02-27 06:42:00,36.0,34.0,-100.00,ESE,121,0.0,0.0,92,0.00,,,0.20,0.000000,,2013-02-27 14:42:00,
2013-02-27 06:52:00,36.0,34.0,-100.00,ESE,121,0.0,0.0,92,0.00,,,0.20,0.000000,,2013-02-27 14:52:00,
2013-02-27 07:02:00,36.0,34.0,-100.00,ESE,121,0.0,0.0,92,0.00,,,0.20,0.000000,,2013-02-27 15:02:00,
2013-02-27 07:32:00,34.0,33.0,-100.00,ESE,110,0.0,0.0,96,0.00,,,0.20,9.000000,,2013-02-27 15:32:00,
2013-02-27 07:42:00,34.0,33.0,-100.00,ESE,110,0.0,0.0,96,0.00,,,0.20,9.000000,,2013-02-27 15:42:00,
2013-02-27 07:52:00,34.0,33.0,-100.00,ESE,110,0.0,0.0,96,0.00,,,0.20,9.000000,,2013-02-27 15:52:00,
2013-02-27 08:01:00,34.0,33.0,-100.00,ESE,110,0.0,0.0,96,0.00,,,0.20,9.000000,,2013-02-27 16:01:00,
2013-02-27 08:32:00,36.0,35.0,-100.00,NE,49,0.0,0.0,95,0.00,,,0.20,30.000000,,2013-02-27 16:32:00,
2013-02-27 08:42:00,36.0,35.0,-100.00,NE,49,0.0,0.0,95,0.00,,,0.20,30.000000,,2013-02-27 16:42:00,
2013-02-27 08:52:00,36.0,35.0,-100.00,NE,49,0.0,0.0,95,0.00,,,0.20,30.000000,,2013-02-27 16:52:00,
2013-02-27 09:01:00,36.0,35.0,-100.00,NE,49,0.0,0.0,95,0.00,,,0.20,30.000000,,2013-02-27 17:01:00,
2013-02-27 09:32:00,41.0,35.0,-100.00,WSW,247,0.0,0.0,78,0.00,,,0.20,111.000000,,2013-02-27 17:32:00,
2013-02-27 09:42:00,41.0,35.0,-100.00,WSW,247,0.0,0.0,78,0.00,,,0.20,111.000000,,2013-02-27 17:42:00,
2013-02-27 09:52:00,41.0,35.0,-100.00,WSW,247,0.0,0.0,78,0.00,,,0.20,111.000000,,2013-02-27 17:52:00,
2013-02-27 10:01:00,41.0,35.0,-100.00,WSW,247,0.0,0.0,78,0.00,,,0.20,111.000000,,2013-02-27 18:01:00,
2013-02-27 10:32:00,44.0,32.0,-100.00,WSW,246,0.0,0.0,63,0.00,,,0.20,230.000000,,2013-02-27 18:32:00,
2013-02-27 10:42:00,44.0,32.0,-100.00,WSW,246,0.0,0.0,63,0.00,,,0.20,230.000000,,2013-02-27 18:42:00,
2013-02-27 10:52:00,44.0,32.0,-100.00,WSW,246,0.0,0.0,63,0.00,,,0.20,230.000000,,2013-02-27 18:52:00,
2013-02-27 11:01:00,44.0,32.0,-100.00,WSW,246,0.0,0.0,63,0.00,,,0.20,230.000000,,2013-02-27 19:01:00,
2013-02-27 11:32:00,52.0,37.0,-100.00,WSW,240,0.0,0.0,56,0.01,,,0.20,763.000000,,2013-02-27 19:32:00,
2013-02-27 11:42:00,52.0,37.0,-100.00,WSW,240,0.0,0.0,56,0.01,,,0.20,763.000000,,2013-02-27 19:42:00,
2013-02-27 11:52:00,52.0,37.0,-100.00,WSW,240,0.0,0.0,56,0.01,,,0.20,763.000000,,2013-02-27 19:52:00,
2013-02-27 12:01:00,52.0,37.0,-100.00,WSW,240,0.0,0.0,56,0.01,,,0.20,763.000000,,2013-02-27 20:01:00,
2013-02-27 12:32:00,49.0,35.0,-100.00,East,85,0.0,0.0,59,-99.99,,,-99.99,323.000000,,2013-02-27 20:32:00,
2013-02-27 12:42:00,49.0,35.0,-100.00,East,85,0.0,0.0,59,-99.99,,,-99.99,323.000000,,2013-02-27 20:42:00,
2013-02-27 12:52:00,49.0,35.0,-100.00,East,85,0.0,0.0,59,-99.99,,,-99.99,323.000000,,2013-02-27 20:52:00,
2013-02-27 13:01:00,49.0,35.0,-100.00,East,85,0.0,0.0,59,-99.99,,,-99.99,323.000000,,2013-02-27 21:01:00,
2013-02-27 13:32:00,52.0,36.0,-100.00,SSW,201,0.0,0.0,55,0.03,,,-99.99,330.000000,,2013-02-27 21:32:00,
2013-02-27 13:42:00,52.0,36.0,-100.00,SSW,201,0.0,0.0,55,0.03,,,-99.99,330.000000,,2013-02-27 21:42:00,
2013-02-27 13:52:00,52.0,36.0,-100.00,SSW,201,0.0,0.0,55,0.03,,,-99.99,330.000000,,2013-02-27 21:52:00,
2013-02-27 14:01:00,52.0,36.0,-100.00,SSW,201,0.0,0.0,55,0.03,,,-99.99,330.000000,,2013-02-27 22:01:00,
2013-02-27 14:32:00,50.0,34.0,-100.00,East,95,0.0,0.0,54,-99.99,,,0.17,285.000000,,2013-02-27 22:32:00,
2013-02-27 14:42:00,50.0,34.0,-100.00,East,95,0.0,0.0,54,-99.99,,,0.17,285.000000,,2013-02-27 22:42:00,
2013-02-27 14:52:00,50.0,34.0,-100.00,East,95,0.0,0.0,54,-99.99,,,0.17,285.000000,,2013-02-27 22:52:00,
2013-02-27 15:01:00,50.0,34.0,-100.00,East,95,0.0,0.0,54,-99.99,,,0.17,285.000000,,2013-02-27 23:01:00,
2013-02-27 15:32:00,50.0,36.0,-100.00,South,171,0.0,0.0,59,0.05,,,0.19,227.000000,,2013-02-27 23:32:00,
2013-02-27 15:42:00,50.0,36.0,-100.00,South,171,0.0,0.0,59,0.05,,,0.19,227.000000,,2013-02-27 23:42:00,
2013-02-27 15:53:00,50.0,36.0,-100.00,South,171,0.0,0.0,59,0.05,,,0.19,227.000000,,2013-02-27 23:53:00,
2013-02-27 16:01:00,50.0,36.0,-100.00,South,171,0.0,0.0,59,0.05,,,0.19,227.000000,,2013-02-28 00:01:00,
2013-02-27 16:32:00,48.0,37.0,-100.00,West,268,0.0,0.0,65,0.03,,,0.19,96.000000,,2013-02-28 00:32:00,
2013-02-27 16:42:00,48.0,37.0,-100.00,West,268,0.0,0.0,65,0.03,,,0.19,96.000000,,2013-02-28 00:42:00,
2013-02-27 16:52:00,48.0,37.0,-100.00,West,268,0.0,0.0,65,0.03,,,0.19,96.000000,,2013-02-28 00:52:00,
2013-02-27 17:01:00,48.0,37.0,-100.00,West,268,0.0,0.0,65,0.03,,,0.19,96.000000,,2013-02-28 01:01:00,
2013-02-27 17:32:00,46.0,40.0,-100.00,SW,233,0.0,0.0,79,0.02,,,0.20,16.000000,,2013-02-28 01:32:00,
2013-02-27 17:42:00,46.0,40.0,-100.00,SW,233,0.0,0.0,79,0.02,,,0.20,16.000000,,2013-02-28 01:42:00,
2013-02-27 17:52:00,46.0,40.0,-100.00,SW,233,0.0,0.0,79,0.02,,,0.20,16.000000,,2013-02-28 01:52:00,
2013-02-27 18:01:00,46.0,40.0,-100.00,SW,233,0.0,0.0,79,0.02,,,0.20,16.000000,,2013-02-28 02:01:00,
2013-02-27 18:32:00,42.0,39.0,-100.00,ESE,115,0.0,0.0,88,-99.99,,,0.20,0.000000,,2013-02-28 02:32:00,
2013-02-27 18:42:00,42.0,39.0,-100.00,ESE,115,0.0,0.0,88,-99.99,,,0.20,0.000000,,2013-02-28 02:42:00,
2013-02-27 18:52:00,42.0,39.0,-100.00,ESE,115,0.0,0.0,88,-99.99,,,0.20,0.000000,,2013-02-28 02:52:00,
2013-02-27 19:01:00,42.0,39.0,-100.00,ESE,115,0.0,0.0,88,-99.99,,,0.20,0.000000,,2013-02-28 03:01:00,
2013-02-27 19:32:00,41.0,39.0,-100.00,East,82,0.0,0.0,92,0.01,,,0.21,0.000000,,2013-02-28 03:32:00,
2013-02-27 19:42:00,41.0,39.0,-100.00,East,82,0.0,0.0,92,0.01,,,0.21,0.000000,,2013-02-28 03:42:00,
2013-02-27 19:52:00,41.0,39.0,-100.00,East,82,0.0,0.0,92,0.01,,,0.21,0.000000,,2013-02-28 03:52:00,
2013-02-27 20:01:00,41.0,39.0,-100.00,East,82,0.0,0.0,92,0.01,,,0.21,0.000000,,2013-02-28 04:01:00,
2013-02-27 20:32:00,41.0,38.0,-100.00,NE,44,0.0,0.0,89,0.00,,,0.21,0.000000,,2013-02-28 04:32:00,
2013-02-27 20:42:00,41.0,38.0,-100.00,NE,44,0.0,0.0,89,0.00,,,0.21,0.000000,,2013-02-28 04:42:00,
2013-02-27 20:52:00,41.0,38.0,-100.00,NE,44,0.0,0.0,89,0.00,,,0.21,0.000000,,2013-02-28 04:52:00,
2013-02-27 21:01:00,41.0,38.0,-100.00,NE,44,0.0,0.0,89,0.00,,,0.21,0.000000,,2013-02-28 05:01:00,
2013-02-27 21:32:00,41.0,37.0,-100.00,SW,220,0.0,0.0,84,0.00,,,0.21,0.000000,,2013-02-28 05:32:00,
2013-02-27 21:42:00,41.0,37.0,-100.00,SW,220,0.0,0.0,84,0.00,,,0.21,0.000000,,2013-02-28 05:42:00,
2013-02-27 21:52:00,41.0,37.0,-100.00,SW,220,0.0,0.0,84,0.00,,,0.21,0.000000,,2013-02-28 05:52:00,
2013-02-27 22:01:00,41.0,37.0,-100.00,SW,220,0.0,0.0,84,0.00,,,0.21,0.000000,,2013-02-28 06:01:00,
2013-02-27 22:32:00,42.0,39.0,-100.00,WNW,298,0.0,0.0,89,0.01,,,0.22,0.000000,,2013-02-28 06:32:00,
2013-02-27 22:42:00,42.0,39.0,-100.00,WNW,298,0.0,0.0,89,0.01,,,0.22,0.000000,,2013-02-28 06:42:00,
2013-02-27 22:52:00,42.0,39.0,-100.00,WNW,298,0.0,0.0,89,0.01,,,0.22,0.000000,,2013-02-28 06:52:00,
2013-02-27 23:01:00,42.0,39.0,-100.00,WNW,298,0.0,0.0,89,0.01,,,0.22,0.000000,,2013-02-28 07:01:00,
2013-02-27 23:32:00,42.0,38.0,-100.00,SW,233,0.0,0.0,87,0.00,,,0.22,0.000000,,2013-02-28 07:32:00,
2013-02-27 23:42:00,42.0,38.0,-100.00,SW,233,0.0,0.0,87,0.00,,,0.22,0.000000,,2013-02-28 07:42:00,
2013-02-27 23:52:00,42.0,38.0,-100.00,SW,233,0.0,0.0,87,0.00,,,0.22,0.000000,,2013-02-28 07:52:00,